Regional Weather Roundup
Issued by NWS Northern Indiana

Home | Current Version | Previous Version | Graphics & Text | Print | Product List | Glossary On
Versions: 1 2 3 4 5 6 7 8 9 10 11 12 13 14 15 16 17 18 19 20 21 22 23 24 25 26 27 28 29 30 31 32 33 34 35 36 37 38 39 40 41 42 43 44 45 46 47 48 49 50
931
ASUS43 KIWX 270400
RWRIWX

KIWX WEATHER ROUNDUP
NATIONAL WEATHER SERVICE NORTHERN INDIANA
1200 AM EDT FRI MAY 27 2016

NOTE: "FAIR" INDICATES FEW OR NO CLOUDS BELOW 12,000 FEET WITH NO
SIGNIFICANT WEATHER AND/OR OBSTRUCTIONS TO VISIBILITY.

* THESE STATIONS ARE NOT UNDER NWS QUALITY CONTROL. THEY ALSO MAY NOT
  REPORT WEATHER SUCH AS PRECIPITATION OR FOG.

INZ001>027-270500-
NORTHERN INDIANA

CITY           SKY/WX    TMP DP  RH WIND       PRES   REMARKS
SOUTH BEND     PTCLDY    71  63  75 SW10      29.94F
GOSHEN         CLOUDY    69  59  70 S7        29.94F
ANGOLA*          N/A     66  59  77 S5        29.95F
FORT WAYNE     MOCLDY    70  61  73 SW9       29.97F

$$
INZ028>050-270500-
CENTRAL INDIANA

CITY           SKY/WX    TMP DP  RH WIND       PRES   REMARKS
LAFAYETTE      PTCLDY    67  62  84 SW3       29.97S
KOKOMO*        CLOUDY    70  61  73 SW8       29.97F
MUNCIE*        CLOUDY    70  62  76 SW7       29.99F
INDIANAPOLIS   CLOUDY    67  62  84 S8        29.97F

$$
MIZ043>046-050>051-056>058-064>065-071>073-077>080-270500-
SOUTHWEST LOWER MICHIGAN

CITY           SKY/WX    TMP DP  RH WIND       PRES   REMARKS
BATTLE CREEK   CLOUDY    70  60  70 S3        29.94F
BENTON HARBOR  PTCLDY    66  63  90 CALM      29.91F
COLDWATER*     CLEAR     69  59  69 CALM      29.94F
HILLSDALE*     PTCLDY    69  58  66 S3        29.96F
HOLLAND        CLOUDY    68  62  81 CALM      29.91F
GRAND RAPIDS   CLOUDY    71  62  73 CALM      29.91F
KALAMAZOO      CLOUDY    69  61  75 CALM      29.92F
STURGIS*       CLOUDY    68  59  73 SE3       29.93F
THREE RIVERS*  FAIR      72  60  67 CALM      29.93F

$$
OHZ001>008-015>018-024>025-270500-
NORTHWEST OHIO

CITY           SKY/WX    TMP DP  RH WIND       PRES   REMARKS
DEFIANCE       MOCLDY    74  60  61 SW7       29.97R
FINDLAY        CLOUDY    72  61  68 S14       29.98R
TOLEDO EXPRESS PTCLDY    71  65  81 S6        29.95S
TOLEDO METCALF PTCLDY    74  64  71 SW9       29.96S
LIMA           CLOUDY    69  62  78 S10       30.00R

$$
AND FOR LAKE MICHIGAN COASTAL AND OPEN LAKE BUOY OBSERVATIONS

STATION/POSITION TEMP    WIND        PRES    VSBY  WAVE
                 AIR SEA DIR/SP/G                  HT/PER
                 (F)     (DEG/KT/KT) (MB)    (MI)  (FT/S)
CALUMET HARBOR                       1011.7F
MICHIGAN CITY     76     140/  9/ 10   N/A
BURNS HARBOR      76     180/ 12/ 17 1013.2S
SAINT JOSEPH      74      CALM  /  3 1014.2R
SOUTH LAKE BUOY   57 50  150/  8/  8 1012.5          0
4 MI NW BRIDGMAN  69 64  150/  6/  6   N/A           0
MICHIGAN CITY     69 61  170/  6/  8   N/A           0

$$
&&




USA.gov is the U.S. government's official web portal to all federal, state and local government web resources and services.